Погода в Бенгази

Ливия     32°05′39″N   20°09′49″E
темп.,
°C
ветер,
м/с
пор.,
м/с
влажн.,
%
обл.,
%
осадки,
мм/ч
давл.,
гПа
погр.,
м
10 августа, ср
ср1023:00+27ссз45670 0.0 1013608
02:00+26ссз45710 0.0 1012298
05:00+25с35740 0.0 1012160
08:00+27с34630 0.0 1013703
11:00+32с56350 0.0 10121954
14:00+33ссз108330 0.0 10121850
17:00+31с910400 0.0 10121290
20:00+29с78460 0.0 1012941
11 августа, чт
чт1123:00+27ссв57570 0.0 1013311
02:00+25ссв47720 0.0 1012167
05:00+24ссв47740 0.0 1012134
08:00+27с56580 0.0 1013531
11:00+31ссз77360 0.0 10131344
14:00+32ссз87390 0.0 10131676
17:00+30ссз88460 0.0 10121393
20:00+28с77610 0.0 1013829
12 августа, пт
пт1223:00+26ссв56680 0.0 1013465
02:00+25ссв35740 0.0 1012131
05:00+24св34770 0.0 101272
08:00+26ссв33650 0.0 1012345
11:00+31сз44400 0.0 10131417
14:00+32сз75340 0.0 10121903
17:00+31ссз65380 0.0 10121381
20:00+28с55500 0.0 1013603
13 августа, сб
сб1323:00+26ссв45610 0.0 1013203
02:00+24св45690 0.0 1012135
05:00+23св34750 0.0 101294
08:00+26св34670 0.0 1013430
11:00+30ссз33370 0.0 10131596
14:00+31сз85380 0.0 10131652
17:00+30ссз87440 0.0 10131232
20:00+27с77560 0.0 1013815
14 августа, вс
вс1423:00+26с57630 0.0 1013586
02:00+25с36680 0.0 1012185
05:00+24с34710 0.0 1012106
08:00+26с34654 0.0 1013796
11:00+29сз54500 0.0 10121314
14:00+31сз76440 0.0 10111404
17:00+29ссз77520 0.0 10111164
20:00+27ссз56620 0.0 1011706